TimeCEST,TemperatureF,Dew PointF,Humidity,Sea Level PressureIn,VisibilityMPH,Wind Direction,Wind SpeedMPH,Gust SpeedMPH,PrecipitationIn,Events,Conditions,WindDirDegrees,DateUTC
12:15 AM,64.4,62.6,94,29.47,4.3,South,16.1,-,N/A,Rain-Thunderstorm,Light Thunderstorms and Rain,170,2012-10-26 22:15:00
12:45 AM,66.2,62.6,88,29.47,4.3,South,10.4,-,N/A,Rain-Thunderstorm,Light Thunderstorms and Rain,190,2012-10-26 22:45:00
1:15 AM,64.4,62.6,94,29.47,5.0,South,6.9,-,N/A,Thunderstorm,Thunderstorm,190,2012-10-26 23:15:00
1:45 AM,64.4,60.8,88,29.50,6.2,South,4.6,-,N/A,,Scattered Clouds,180,2012-10-26 23:45:00
2:15 AM,64.4,62.6,94,29.47,6.2,SSE,5.8,-,N/A,,Scattered Clouds,160,2012-10-27 00:15:00
2:45 AM,64.4,62.6,94,29.47,6.2,SSE,5.8,-,N/A,,Scattered Clouds,160,2012-10-27 00:45:00
3:15 AM,64.4,62.6,94,29.44,6.2,South,6.9,-,N/A,,Scattered Clouds,170,2012-10-27 01:15:00
3:45 AM,66.2,64.4,94,29.44,6.2,South,6.9,-,N/A,,Scattered Clouds,180,2012-10-27 01:45:00
4:15 AM,66.2,64.4,94,29.42,5.0,South,8.1,-,N/A,Thunderstorm,Thunderstorm,170,2012-10-27 02:15:00
4:45 AM,66.2,64.4,94,29.42,5.0,South,9.2,-,N/A,Thunderstorm,Thunderstorm,190,2012-10-27 02:45:00
5:15 AM,66.2,64.4,94,29.39,5.0,South,10.4,-,N/A,Thunderstorm,Thunderstorm,190,2012-10-27 03:15:00
5:45 AM,66.2,64.4,94,29.39,5.6,South,11.5,-,N/A,Thunderstorm,Thunderstorm,190,2012-10-27 03:45:00
6:15 AM,66.2,64.4,94,29.39,5.6,South,11.5,-,N/A,Thunderstorm,Thunderstorm,190,2012-10-27 04:15:00
6:45 AM,66.2,64.4,94,29.39,6.2,South,11.5,-,N/A,Thunderstorm,Scattered Clouds,180,2012-10-27 04:45:00
7:15 AM,66.2,64.4,94,29.39,6.2,South,8.1,-,N/A,,Mostly Cloudy,180,2012-10-27 05:15:00
7:45 AM,66.2,64.4,94,29.39,6.2,South,6.9,-,N/A,Rain,Light Rain,170,2012-10-27 05:45:00
8:15 AM,66.2,62.6,88,29.39,5.0,South,9.2,-,N/A,Rain,Light Rain,180,2012-10-27 06:15:00
8:45 AM,66.2,64.4,94,29.36,5.0,South,11.5,-,N/A,,Partly Cloudy,190,2012-10-27 06:45:00
9:15 AM,68.0,66.2,94,29.36,5.0,SSW,16.1,-,N/A,,Scattered Clouds,200,2012-10-27 07:15:00
9:45 AM,68.0,64.4,88,29.36,5.0,South,15.0,26.5,N/A,,Scattered Clouds,190,2012-10-27 07:45:00
10:15 AM,68.0,64.4,88,29.36,5.0,SSW,13.8,25.3,N/A,,Scattered Clouds,210,2012-10-27 08:15:00
10:45 AM,68.0,64.4,88,29.36,5.0,SW,15.0,26.5,N/A,,Scattered Clouds,220,2012-10-27 08:45:00
11:15 AM,68.0,64.4,88,29.36,6.2,SSW,16.1,31.1,N/A,,Scattered Clouds,210,2012-10-27 09:15:00
11:45 AM,68.0,62.6,83,29.36,6.2,SSW,16.1,-,N/A,,Scattered Clouds,200,2012-10-27 09:45:00
12:15 PM,68.0,62.6,83,29.36,6.2,SSW,10.4,-,N/A,,Scattered Clouds,210,2012-10-27 10:15:00
12:45 PM,69.8,62.6,78,29.36,6.2,SSW,16.1,31.1,N/A,,Scattered Clouds,200,2012-10-27 10:45:00
1:15 PM,69.8,60.8,73,29.33,6.2,SSW,20.7,32.2,N/A,,Scattered Clouds,200,2012-10-27 11:15:00
1:45 PM,69.8,60.8,73,29.33,6.2,SSW,16.1,28.8,N/A,,Scattered Clouds,210,2012-10-27 11:45:00
2:15 PM,69.8,60.8,73,29.33,6.2,SSW,17.3,32.2,N/A,,Scattered Clouds,210,2012-10-27 12:15:00
2:45 PM,68.0,62.6,83,29.33,6.2,SSW,15.0,26.5,N/A,,Scattered Clouds,200,2012-10-27 12:45:00
3:15 PM,68.0,62.6,83,29.33,6.2,SSW,13.8,-,N/A,,Scattered Clouds,200,2012-10-27 13:15:00
3:45 PM,69.8,64.4,83,29.33,6.2,SSW,17.3,-,N/A,,Scattered Clouds,200,2012-10-27 13:45:00
4:15 PM,68.0,64.4,88,29.30,6.2,SSW,16.1,-,N/A,,Scattered Clouds,200,2012-10-27 14:15:00
4:45 PM,68.0,64.4,88,29.30,6.2,South,13.8,-,N/A,,Scattered Clouds,190,2012-10-27 14:45:00
5:15 PM,68.0,62.6,83,29.30,6.2,South,11.5,-,N/A,,Scattered Clouds,190,2012-10-27 15:15:00
5:45 PM,68.0,64.4,88,29.30,6.2,South,10.4,-,N/A,,Scattered Clouds,180,2012-10-27 15:45:00
6:15 PM,66.2,62.6,88,29.30,6.2,South,9.2,-,N/A,,Scattered Clouds,190,2012-10-27 16:15:00
6:45 PM,66.2,62.6,88,29.30,6.2,South,8.1,-,N/A,,Scattered Clouds,180,2012-10-27 16:45:00
7:15 PM,66.2,62.6,88,29.30,6.2,South,9.2,-,N/A,,Scattered Clouds,180,2012-10-27 17:15:00
7:45 PM,64.4,62.6,94,29.30,6.2,South,10.4,-,N/A,Rain,Rain,180,2012-10-27 17:45:00
8:15 PM,64.4,62.6,94,29.30,6.2,South,11.5,-,N/A,,Scattered Clouds,180,2012-10-27 18:15:00
8:45 PM,64.4,62.6,94,29.30,6.2,South,9.2,-,N/A,,Scattered Clouds,180,2012-10-27 18:45:00
9:15 PM,64.4,62.6,94,29.30,6.2,South,8.1,-,N/A,,Scattered Clouds,180,2012-10-27 19:15:00
9:45 PM,64.4,62.6,94,29.27,6.2,South,5.8,-,N/A,Thunderstorm,Thunderstorm,170,2012-10-27 19:45:00
10:15 PM,64.4,60.8,88,29.27,6.2,South,9.2,25.3,N/A,Rain-Thunderstorm,Light Thunderstorms and Rain,170,2012-10-27 20:15:00
10:45 PM,62.6,59.0,88,29.27,6.2,South,9.2,-,N/A,Rain-Thunderstorm,Light Thunderstorms and Rain,170,2012-10-27 20:45:00
11:15 PM,62.6,59.0,88,29.30,6.2,SSW,8.1,-,N/A,Thunderstorm,Thunderstorm,200,2012-10-27 21:15:00
11:45 PM,62.6,59.0,88,29.30,6.2,SSW,6.9,-,N/A,Thunderstorm,Thunderstorm,200,2012-10-27 21:45:00